[Iaude] MPEC K132: 2024 JJ25 [a=2.38,e=0.59,i=2.4,H=22.3]

mpec at cfa.harvard.edu mpec at cfa.harvard.edu
Thu May 30 06:27:50 EDT 2024


M.P.E.C. 2024-K132                                 Issued 2024 May 30, 10:26 UT

     The Minor Planet Electronic Circulars contain information on unusual
         minor planets, routine data on comets and natural satellites,
         and occasional editorial announcements.  They are published
    on behalf of Division F of the International Astronomical Union by the
          Minor Planet Center, Smithsonian Astrophysical Observatory,
                          Cambridge, MA 02138, U.S.A.
			  
             Prepared using the Tamkin Foundation Computer Network

                              MPC at CFA.HARVARD.EDU
            URL https://www.minorplanetcenter.net/    ISSN 1523-6714

                                   2024 JJ25                                    


Observations:
     K24J25J* C2024 05 02.42445415 08 34.957-20 38 36.16         21.52wXEK132F51
     K24J25J  C2024 05 02.43617715 08 34.606-20 38 33.83         21.39wXEK132F51
     K24J25J  C2024 05 02.44786015 08 34.262-20 38 31.18         21.57wXEK132F51
     K24J25J  C2024 05 02.45955015 08 33.876-20 38 28.19         21.47wXEK132F51
     K24J25J  C2024 05 06.47886515 06 52.960-20 19 58.53         21.52wXEK132F51
     K24J25J  C2024 05 06.48995315 06 52.518-20 19 54.74         21.28wXEK132F51
     K24J25J  C2024 05 06.50101315 06 52.089-20 19 51.15         21.32wXEK132F51
     K24J25J  C2024 05 06.51207615 06 51.646-20 19 47.48         21.12wXEK132F51
     K24J25J  C2024 05 08.43153515 05 53.955-20 08 50.80         20.86wXEK132F51
     K24J25J  C2024 05 08.44236015 05 53.487-20 08 46.64         20.84wXEK132F51
     K24J25J  C2024 05 08.45318515 05 53.018-20 08 42.71         20.86wXEK132F51
     K24J25J  C2024 05 08.46398515 05 52.552-20 08 38.73         20.96wXEK132F51
     K24J25J  C2024 05 09.41977015 05 21.529-20 02 38.16         20.79wXEK132F51
     K24J25J  C2024 05 09.43081615 05 21.011-20 02 33.67         20.90wXEK132F51
     K24J25J  C2024 05 09.45294615 05 20.012-20 02 25.12         20.84wXEK132F51
     K24J25J .C2024 05 29.00583 14 50 36.00 -16 12 59.7          19.4 GWEK132950
     K24J25J .C2024 05 29.00797 14 50 35.86 -16 12 57.3          19.0 GWEK132950
     K24J25J .C2024 05 29.01010 14 50 35.71 -16 12 54.8          19.4 GWEK132950
     K24J25J  C2024 05 29.33335314 50 19.891-16 06 39.60         20.53wXEK132F51
     K24J25J  C2024 05 29.34566914 50 19.007-16 06 25.55         20.48wXEK132F51
     K24J25J  C2024 05 29.37035514 50 17.224-16 05 57.08         20.71wXEK132F51
     K24J25J .C2024 05 29.92810 14 49 48.96 -15 55 06.0                WEK132950
     K24J25J .C2024 05 29.92947 14 49 48.84 -15 55 04.0                WEK132950
     K24J25J .C2024 05 29.93235 14 49 48.64 -15 55 01.0                WEK132950
     K24J25J .C2024 05 29.93370 14 49 48.54 -15 54 59.4                WEK132950
     K24J25J KC2024 05 29.93400314 49 47.04 -15 55 07.0          18.9 VdEK132L01
     K24J25J KC2024 05 29.93652614 49 46.87 -15 55 04.0          19.2 VdEK132L01
     K24J25J KC2024 05 29.93904914 49 46.72 -15 55 01.0          19.0 VdEK132L01
     K24J25J  C2024 05 30.35198314 49 23.594-15 46 34.01         19.8 GVEK132H01
     K24J25J  C2024 05 30.35501914 49 23.393-15 46 30.11         19.7 GVEK132H01
     K24J25J  C2024 05 30.35859514 49 23.159-15 46 25.47         19.5 GVEK132H01
     K24J25J  C2024 05 30.36335214 49 22.854-15 46 19.53         19.7 GVEK132H01

Observer details:
950 La Palma.  Observers M. Stanescu, O. Vaduvescu, R. de la Fuente Marcos, J.
    Bishop.  Measurers M. Predatu, O. Vaduvescu, M. Stanescu, M. Popescu, C.
    de la Fuente Marcus, L. Curelaru, D. Bertesteanu.  2.5-m f/3.3 reflector +
    CCD.
F51 Pan-STARRS 1, Haleakala.  Observers J. Herman, T. Lowe, P. Minguez, A.
    Schultz, I. Smith.  Measurers K. Chambers, T. de Boer, J. Fairlamb, H.
    Gao, M. Huber, C.-C. Lin, E. Magnier, Y. Ramanjooloo, R. Wainscoat, R.
    Weryk.  1.8-m Ritchey-Chretien + CCD.
H01 Magdalena Ridge Observatory, Socorro.  Observers W. H. Ryan, E. V. Ryan.
    Measurer W. H. Ryan.  2.4-m f/8.9 Ritchey-Chretien + CCD.
L01 Visnjan Observatory, Tican.  Observer K. Korlevic.  1.0-m f/2.9 reflector
    + CCD.

Orbital elements:
2024 JJ25                                                Earth MOID = 0.0224 AU
Epoch 2024 Mar. 31.0 TT = JDT 2460400.5                 Veres                   
M 330.29075              (2000.0)            P               Q                  
n   0.26815896     Peri.   58.81572     +0.53709110     +0.84268680             
a   2.3816312      Node   243.71591     -0.78748131     +0.48494238             
e   0.5895249      Incl.    2.40204     -0.30233481     +0.23390136             
P   3.68           H   22.37          G   0.15           U   7                  
Residuals in seconds of arc
240502 F51  0.2-  0.2+    240508 F51  0.0   0.1-    240529 950  0.0   0.3+
240502 F51  0.1-  0.2-    240509 F51  0.1+  0.2-    240529 950  0.1+  0.1-
240502 F51  0.2+  0.2-    240509 F51  0.1-  0.1+    240529 950  0.0   0.1-
240502 F51  0.2-  0.0     240509 F51  0.1-  0.1-    240529 L01  0.3-  0.3+
240506 F51  0.3+  0.1+    240529 950  0.1-  0.1+    240529 L01  0.3-  0.3+
240506 F51  0.1+  0.2+    240529 950  0.1+  0.0     240529 L01  0.0   0.2+
240506 F51  0.1+  0.1+    240529 950  0.1+  0.1+    240530 H01  0.0   0.1-
240506 F51  0.1-  0.0     240529 F51  0.0   0.0     240530 H01  0.0   0.1-
240508 F51  0.0   0.1-    240529 F51  0.0   0.0     240530 H01  0.0   0.0
240508 F51  0.0   0.1+    240529 F51  0.0   0.0     240530 H01  0.1+  0.1-
240508 F51  0.0   0.0     240529 950  0.4+  0.1-

Ephemeris:
2024 JJ25                a,e,i = 2.38, 0.59, 2                   q = 0.9776
Date    TT    R. A. (2000) Decl.     Delta      r    Elong.  Phase     V
2024 04 30    15 09 20.4 -20 46 51   0.4034  1.4052   168.8     8.0    21.7
...
2024 05 15    15 01 50.0 -19 19 19   0.2780  1.2876   173.8     4.8    20.6
...
2024 05 23    14 55 43.0 -17 49 31   0.2221  1.2280   164.6    12.6    20.3
...
2024 05 29    14 50 36.8 -16 12 34   0.1841  1.1854   157.3    19.3    20.0
2024 05 30    14 49 44.2 -15 53 07   0.1780  1.1786   156.0    20.5    20.0
2024 05 31    14 48 51.4 -15 32 32   0.1720  1.1718   154.8    21.7    19.9
...
2024 06 06    14 43 32.8 -12 59 31   0.1375  1.1324   146.9    29.3    19.6
...
2024 06 14    14 36 34.1 -07 19 43   0.09436 1.0850   135.5    41.0    19.0
...
2024 06 29    14 03 14.8 +46 27 22   0.02853 1.0158    87.6    90.8    17.9

M. P. C. Staff               (C) Copyright 2024 MPC           M.P.E.C. 2024-K132





More information about the Iaude mailing list